This demonstration page uses our WeatherBlox Daily Observations layout. Learn more.

Left ArrowRight Arrow

31.31129, -92.44514

Hourly Observations for August 7, 2016

Temp ( °F °C ) Dew Point ( °F °C ) Humidity (%) Winds ( mph kmh ) Pressure ( in mb ) Visibility ( mi km ) Precip ( " mm )
12:53 am 00:53 Clear 77 25 74 23.3 90 90 Calm 29.94 1014 10 16 0.00 0.00
1:53 am 01:53 Clear 76 24.4 75 23.9 97 97 W 3 6 29.92 1013 9 14 0.00 0.00
2:53 am 02:53 Clear 76 24.4 75 23.9 97 97 NNW 5 7 29.91 1013 9 14 0.00 0.00
3:53 am 03:53 Clear 76 24.4 75 23.9 97 97 Calm 29.91 1013 9 14 0.00 0.00
4:53 am 04:53 Clear 76 24.4 75 23.9 97 97 Calm 29.92 1013 8 13 0.00 0.00
5:53 am 05:53 Clear 75 23.9 74 23.3 96 96 Calm 29.93 1014 7 11 0.00 0.00
6:53 am 06:53 Sunny with Mist and Fog 75 23.9 74 23.3 96 96 Calm 29.94 1014 6 10 0.00 0.00
7:53 am 07:53 Sunny 77 25 75 23.9 94 94 Calm 29.95 1014 8 13 0.00 0.00
8:53 am 08:53 Sunny 83 28.3 76 24.4 79 79 WNW 6 9 29.96 1015 9 14 0.00 0.00
9:53 am 09:53 Sunny 87 30.6 76 24.4 70 70 VRB 7 11 29.95 1014 9 14 0.00 0.00
10:53 am 10:53 Sunny 89 31.7 75 23.9 63 63 NNW 5 7 29.96 1015 10 16 0.00 0.00
11:53 am 11:53 Sunny 91 32.8 76 24.4 61 61 undefined N/A 29.96 1015 10 16 0.00 0.00
12:53 pm 12:53 Sunny 93 33.9 76 24.4 58 58 NW 9 15 29.94 1014 10 16 0.00 0.00
1:53 pm 13:53 Sunny 94 34.4 75 23.9 54 54 VRB 6 9 29.92 1013 10 16 0.00 0.00
2:53 pm 14:53 Mostly Sunny 96 35.6 74 23.3 49 49 NNE 6 9 29.90 1012 10 16 0.00 0.00
3:53 pm 15:53 Sunny 95 35 75 23.9 53 53 Calm 29.87 1012 10 16 0.00 0.00
4:53 pm 16:53 Sunny 95 35 75 23.9 53 53 ENE 3 6 29.85 1011 10 16 0.00 0.00
5:53 pm 17:53 Mostly Cloudy 92 33.3 76 24.4 60 60 undefined N/A 29.85 1011 10 16 0.00 0.00
6:07 pm 18:07 Cloudy with Nearby Thunderstorms 89 31.7 77 25 68 68 S 12 19 29.85 1011 9 14 0.00 0.00
6:22 pm 18:22 Mostly Cloudy with Light Rain 83 28.3 78 25.6 85 85 S 8 13 29.85 1011 6 10 0.00 0.03
6:34 pm 18:34 Mostly Cloudy with Thunderstorms 82 27.8 78 25.6 88 88 S 14 22 29.85 1011 5 8 0.00 0.03
6:45 pm 18:45 Mostly Cloudy with Thunderstorms 82 27.8 77 25 85 85 SSW 10 17 29.85 1011 7 11 0.00 0.03
6:53 pm 18:53 Mostly Cloudy 83 28.3 76 24.4 79 79 S 13 20 29.86 1011 9 14 0.00 0.03
7:53 pm 19:53 Sunny 84 28.9 77 25 80 80 Calm 29.86 1011 9 14 0.00 0.00
8:53 pm 20:53 Clear 82 27.8 80 26.7 94 94 ESE 5 7 29.86 1011 9 14 0.00 0.00
9:53 pm 21:53 Partly Cloudy 83 28.3 77 25 82 82 NE 8 13 29.90 1012 10 16 0.00 0.00
10:18 pm 22:18 Mostly Clear with Nearby Thunderstorms 82 27.8 73 22.8 74 74 NNE 13 20 29.91 1013 10 16 0.00 0.00
10:36 pm 22:36 Mostly Cloudy with Nearby Thunderstorms 79 26.1 72 22.2 79 79 N 21 33 29.94 1014 10 16 0.00 0.00
10:48 pm 22:48 Cloudy with Nearby Thunderstorms 75 24 72 22 89 89 N 21 33 29.97 1015 2 3 0.22 5.59
10:53 pm 22:53 Cloudy with Nearby Thunderstorms 74 23.3 72 22.2 94 94 N 16 26 29.97 1015 1 2 0.34 8.64
11:06 pm 23:06 Cloudy with Nearby Thunderstorms 73 22.8 71 21.7 94 94 NNE 13 20 29.97 1015 3 5 0.08 2.03
11:18 pm 23:18 Cloudy with Nearby Thunderstorms 73 22.8 71 21.7 94 94 N 12 19 29.97 1015 5 8 0.10 2.54
11:37 pm 23:37 Cloudy 73 22.8 71 21.7 94 94 N 10 17 29.97 1015 10 16 0.11 2.79
11:53 pm 23:53 Mostly Cloudy 73 22.8 71 21.7 94 94 NNE 7 11 29.97 1015 10 16 0.11 2.79

Powered by AerisWeather